ROMMA est une association bénévole à but non lucratif. Votre soutien est indispensable : ADHERER à ROMMA ou FAIRE un DON

Briord - (01, Ain)

Bugey (281 m)   Longitude: 05° 29' 13" E   Latitude: 45° 46' 37" N Station partenaire n°15
 

Détail journalier du     <<     >>

Température Precipitation Humidité Pression Vent Dir Rafale Dir. rafale Ensol.
Heure (°C) (mm) (%) (hPa) (km/h) (km/h) (min)
01:00 13.2084102000---0
02:00 12.8086102000---0
03:00 12.1088102000---0
04:00 11.6089102000---0
05:00 11.1089101900---0
06:00 10.3092101900---0
07:00 10.0092101900---0
08:00 10.7092102000---0
09:00 14.9084102000---40
10:00 17.9073101900---60
11:00 20.3066101900---60
12:00 21.406210181---15ONO55
13:00 23.405710183ONO16N50
14:00 24.805410175NO21ONO55
15:00 25.605210175ONO19NNO30
16:00 26.005210174O19ONO35
17:00 26.405110164ONO18NNO55
18:00 25.505210163ONO16ONO45
19:00 26.804810151ONO10O50
20:00 24.3059101505ONO35
21:00 19.4068101602ESE25
22:00 16.6076101602ESE0
23:00 16.8068101608ENE0
minuit 15.0076101600---0

Graphique du 16-08-2019

 

Serveur OMMA